Ketchikan, AK

8:45 AM AKST on November 13, 2018 (GMT -0900)
Ketchikan International

Weather History for PAKT - December, 2017

Change the Weather History Date:

Tuesday, December 12, 2017

  Actual Average Record
Temperature  
Mean Temperature 46 °F -  
Max Temperature 48 °F 41 °F 62 °F (1962)
Min Temperature 44 °F 31 °F 5 °F (1971)
Degree Days  
Heating Degree Days 19    
Moisture  
Dew Point 44 °F    
Average Humidity 92    
Maximum Humidity 100    
Minimum Humidity 77    
Precipitation  
Precipitation 0.36 in - - ()
Sea Level Pressure  
Sea Level Pressure 30.28 in    
Wind  
Wind Speed 9 mph (SSE)    
Max Wind Speed 17 mph    
Max Gust Speed 24 mph    
Visibility 5 miles    
Events Rain    
Averages and records for this station are not official NWS values.
T = Trace of Precipitation, MM = Missing Value Source: NWS Daily Summary

Daily Weather History Graph

Daily Weather History Graph

Search for Another Location

Airport or City:

Astronomy

Dec. 12, 2017 Rise Set
Actual Time 8:05 AM AKST 3:16 PM AKST
Civil Twilight 7:19 AM AKST 4:01 PM AKST
Nautical Twilight 6:31 AM AKST 4:49 PM AKST
Astronomical Twilight 5:46 AM AKST 5:34 PM AKST
Moon 1:39 AM AKST (12/12) 1:22 PM AKST (12/12)
Length of Visible Light 8h 42m
Length of Day
7h 10m
Waning Crescent, 25% of the Moon is Illuminated
Dec 12
Waning Crescent
Dec 17
New
Dec 26
First Quarter
Jan 1
Full
Jan 8
Last Quarter

Hourly Weather History & Observations

Time (AKST) Temp. Windchill Dew Point Humidity Pressure Visibility Wind Dir Wind Speed Gust Speed Precip Events Conditions
12:53 AM 48.9 °F - 42.1 °F 77% 30.13 in 10.0 mi SE 8.1 mph - N/A   Overcast
1:53 AM 46.9 °F - 41.0 °F 80% 30.09 in 10.0 mi South 8.1 mph - N/A   Scattered Clouds
2:53 AM 48.0 °F - 41.0 °F 77% 30.13 in 10.0 mi South 8.1 mph - N/A   Overcast
3:37 AM 46.0 °F 42.5 °F 44.1 °F 93% 30.15 in 4.0 mi South 6.9 mph - 0.01 in Rain Light Rain
3:53 AM 46.0 °F 43.1 °F 44.1 °F 93% 30.16 in 6.0 mi South 5.8 mph - 0.01 in Rain Light Rain
4:53 AM 46.9 °F - 44.1 °F 90% 30.17 in 6.0 mi South 4.6 mph - 0.01 in Rain Light Rain
5:53 AM 46.0 °F 41.4 °F 44.1 °F 93% 30.19 in 10.0 mi South 9.2 mph - 0.00 in   Overcast
6:03 AM 46.4 °F 41.5 °F 44.6 °F 93% 30.18 in 6.0 mi SSE 10.4 mph - N/A Rain Light Rain
6:53 AM 46.4 °F 40.7 °F 44.6 °F 93% 30.22 in 3.0 mi SSE 12.7 mph - N/A Rain Light Rain
7:53 AM 46.4 °F 40.4 °F 44.6 °F 93% 30.24 in 3.0 mi SE 13.8 mph - N/A Rain Light Rain
8:53 AM 44.6 °F 40.2 °F 44.6 °F 100% 30.27 in 3.0 mi SSE 8.1 mph - N/A Rain Light Rain
9:53 AM 46.4 °F 41.1 °F 44.6 °F 93% 30.29 in 3.0 mi SE 11.5 mph - N/A Rain Light Rain
10:53 AM 46.9 °F - 46.0 °F 97% 30.31 in 10.0 mi SE 13.8 mph - 0.00 in   Overcast
11:53 AM 46.4 °F 41.1 °F 46.4 °F 100% 30.33 in 10.0 mi SE 11.5 mph - N/A   Overcast
12:51 PM 46.4 °F 42.4 °F 44.6 °F 93% 30.32 in 4.0 mi ESE 8.1 mph - N/A Rain Light Rain
12:53 PM 46.4 °F 41.5 °F 44.6 °F 93% 30.32 in 4.0 mi ESE 10.4 mph - N/A Rain Light Rain
1:51 PM 46.4 °F 45.2 °F 44.6 °F 93% 30.30 in 8.0 mi Variable 3.5 mph - N/A Rain Light Rain
1:53 PM 46.4 °F 45.2 °F 44.6 °F 93% 30.31 in 8.0 mi South 3.5 mph - N/A Rain Light Rain
2:53 PM 46.0 °F 44.8 °F 44.1 °F 93% 30.31 in 5.0 mi SSE 3.5 mph - 0.04 in Rain Light Rain
3:51 PM 46.4 °F 45.2 °F 44.6 °F 93% 30.30 in 6.0 mi South 3.5 mph - 0.03 in Rain Light Rain
3:53 PM 46.0 °F 44.8 °F 44.1 °F 93% 30.31 in 6.0 mi South 3.5 mph - 0.04 in Rain Light Rain
4:53 PM 46.0 °F 42.5 °F 44.1 °F 93% 30.31 in 5.0 mi SSE 6.9 mph - 0.05 in Rain Light Rain
5:53 PM 46.0 °F 42.5 °F 45.0 °F 96% 30.31 in 4.0 mi South 6.9 mph - 0.06 in Rain Light Rain
6:53 PM 46.4 °F 41.5 °F 44.6 °F 93% 30.33 in 3.0 mi SSE 10.4 mph - N/A Rain Light Rain
7:51 PM 46.4 °F 41.9 °F 44.6 °F 93% 30.34 in 3.0 mi SSE 9.2 mph - N/A Rain Rain
7:53 PM 46.4 °F 41.9 °F 44.6 °F 93% 30.35 in 3.0 mi SSE 9.2 mph - N/A Rain Rain
8:53 PM 46.4 °F 39.8 °F 44.6 °F 93% 30.37 in 6.0 mi SE 16.1 mph - N/A Rain Light Rain
9:51 PM 46.4 °F 39.8 °F 44.6 °F 93% 30.36 in 4.0 mi SE 16.1 mph 24.2 mph 0.03 in Rain Light Rain
9:53 PM 46.9 °F - 45.0 °F 93% 30.37 in 4.0 mi SE 17.3 mph - 0.03 in Rain Light Rain
10:53 PM 46.9 °F - 45.0 °F 93% 30.35 in 3.0 mi SE 16.1 mph - 0.03 in Rain Light Rain
11:03 PM 46.4 °F 39.5 °F 44.6 °F 93% 30.35 in 2.0 mi SE 17.3 mph - N/A Rain Light Rain
11:41 PM 46.0 °F 39.9 °F 45.0 °F 96% 30.36 in 1.5 mi SE 13.8 mph - 0.07 in Rain Light Rain
11:53 PM 46.0 °F 40.2 °F 45.0 °F 96% 30.37 in 1.8 mi SE 12.7 mph - 0.09 in Rain Light Rain